Previsão horária em Barnala

Hoje, 29 Outubro, Quinta-feira

Tempo Temperatura Precipitação Vento Pressão Humidade
00:00 +21°C° 0 mm 1 m/s 739 mmHg 21%
01:00 +21°C° 0 mm 1 m/s 738 mmHg 21%
02:00 +20°C° 0 mm 1 m/s 738 mmHg 22%
03:00 +20°C° 0 mm 1 m/s 738 mmHg 23%
04:00 +19°C° 0 mm 1 m/s 738 mmHg 25%
05:00 +18°C° 0 mm 1 m/s 739 mmHg 27%
06:00 +20°C° 0 mm 1 m/s 739 mmHg 25%
07:00 +22°C° 0 mm 1 m/s 740 mmHg 23%
08:00 +24°C° 0 mm 1 m/s 740 mmHg 21%
09:00 +27°C° 0 mm 1 m/s 740 mmHg 18%
10:00 +30°C° 0 mm 1 m/s 741 mmHg 15%
11:00 +33°C° 0 mm 1 m/s 741 mmHg 12%
12:00 +33°C° 0 mm 1 m/s 740 mmHg 11%
13:00 +34°C° 0 mm 1 m/s 740 mmHg 10%
14:00 +34°C° 0 mm 1 m/s 739 mmHg 9%
15:00 +32°C° 0 mm 1 m/s 739 mmHg 10%
16:00 +30°C° 0 mm 1 m/s 739 mmHg 11%
17:00 +29°C° 0 mm 1 m/s 738 mmHg 12%
18:00 +27°C° 0 mm 1 m/s 739 mmHg 13%
19:00 +26°C° 0 mm 1 m/s 739 mmHg 15%
20:00 +24°C° 0 mm 2 m/s 739 mmHg 16%
21:00 +23°C° 0 mm 1 m/s 739 mmHg 17%
22:00 +22°C° 0 mm 1 m/s 739 mmHg 18%
23:00 +19°C° 0 mm 0 m/s 739 mmHg 19%

Amanhã, 30 Outubro, Sexta-feira

Tempo Temperatura Precipitação Vento Pressão Humidade
00:00 +19°C° 0 mm 0 m/s 739 mmHg 20%
01:00 +18°C° 0 mm 0 m/s 739 mmHg 20%
02:00 +18°C° 0 mm 0 m/s 739 mmHg 21%
03:00 +18°C° 0 mm 0 m/s 739 mmHg 21%
04:00 +19°C° 0 mm 1 m/s 739 mmHg 21%
05:00 +19°C° 0 mm 1 m/s 739 mmHg 22%
06:00 +21°C° 0 mm 1 m/s 739 mmHg 20%
07:00 +22°C° 0 mm 1 m/s 740 mmHg 19%
08:00 +24°C° 0 mm 1 m/s 741 mmHg 17%
09:00 +27°C° 0 mm 1 m/s 741 mmHg 15%
10:00 +30°C° 0 mm 2 m/s 741 mmHg 13%
11:00 +34°C° 0 mm 2 m/s 741 mmHg 11%
12:00 +34°C° 0 mm 3 m/s 740 mmHg 10%
13:00 +35°C° 0 mm 4 m/s 739 mmHg 9%
14:00 +36°C° 0 mm 4 m/s 739 mmHg 9%
15:00 +34°C° 0 mm 4 m/s 739 mmHg 10%
16:00 +31°C° 0 mm 3 m/s 738 mmHg 11%
17:00 +29°C° 0 mm 2 m/s 738 mmHg 13%
18:00 +27°C° 0 mm 2 m/s 738 mmHg 15%
19:00 +26°C° 0 mm 2 m/s 739 mmHg 16%
20:00 +24°C° 0 mm 2 m/s 739 mmHg 18%
21:00 +23°C° 0 mm 2 m/s 739 mmHg 19%
22:00 +23°C° 0 mm 2 m/s 739 mmHg 20%
23:00 +21°C° 0 mm 2 m/s 739 mmHg 20%

Depois de amanhã, 31 Outubro, Sábado

Tempo Temperatura Precipitação Vento Pressão Humidade
00:00 +20°C° 0 mm 2 m/s 739 mmHg 21%
01:00 +20°C° 0 mm 2 m/s 739 mmHg 22%
02:00 +19°C° 0 mm 2 m/s 739 mmHg 23%
03:00 +18°C° 0 mm 2 m/s 739 mmHg 23%
04:00 +18°C° 0 mm 2 m/s 738 mmHg 24%
05:00 +17°C° 0 mm 2 m/s 738 mmHg 24%
06:00 +19°C° 0 mm 2 m/s 739 mmHg 22%
07:00 +21°C° 0 mm 2 m/s 739 mmHg 20%
08:00 +22°C° 0 mm 3 m/s 740 mmHg 17%
09:00 +27°C° 0 mm 3 m/s 740 mmHg 14%
10:00 +30°C° 0 mm 4 m/s 740 mmHg 10%
11:00 +35°C° 0 mm 5 m/s 740 mmHg 6%
12:00 +35°C° 0 mm 4 m/s 739 mmHg 6%
13:00 +35°C° 0 mm 4 m/s 739 mmHg 6%
14:00 +36°C° 0 mm 4 m/s 738 mmHg 5%
15:00 +34°C° 0 mm 3 m/s 738 mmHg 6%
16:00 +31°C° 0 mm 3 m/s 738 mmHg 7%
17:00 +29°C° 0 mm 2 m/s 737 mmHg 8%
18:00 +27°C° 0 mm 2 m/s 738 mmHg 9%
19:00 +25°C° 0 mm 2 m/s 738 mmHg 10%
20:00 +23°C° 0 mm 2 m/s 739 mmHg 11%
21:00 +23°C° 0 mm 2 m/s 739 mmHg 12%
22:00 +21°C° 0 mm 2 m/s 739 mmHg 13%
23:00 +20°C° 0 mm 2 m/s 739 mmHg 14%

1 Novembro, Domingo

Tempo Temperatura Precipitação Vento Pressão Humidade
00:00 +20°C° 0 mm 2 m/s 739 mmHg 15%
01:00 +19°C° 0 mm 2 m/s 739 mmHg 16%
02:00 +18°C° 0 mm 2 m/s 739 mmHg 17%
03:00 +17°C° 0 mm 2 m/s 739 mmHg 17%
04:00 +17°C° 0 mm 2 m/s 739 mmHg 17%
05:00 +16°C° 0 mm 2 m/s 739 mmHg 18%
06:00 +18°C° 0 mm 2 m/s 739 mmHg 16%
07:00 +20°C° 0 mm 2 m/s 740 mmHg 15%
08:00 +22°C° 0 mm 1 m/s 740 mmHg 14%
09:00 +26°C° 0 mm 2 m/s 740 mmHg 11%
10:00 +29°C° 0 mm 3 m/s 740 mmHg 9%
11:00 +33°C° 0 mm 3 m/s 740 mmHg 6%
12:00 +34°C° 0 mm 3 m/s 740 mmHg 6%
13:00 +35°C° 0 mm 4 m/s 739 mmHg 5%
14:00 +36°C° 0 mm 4 m/s 739 mmHg 4%
15:00 +33°C° 0 mm 3 m/s 738 mmHg 5%
16:00 +30°C° 0 mm 3 m/s 738 mmHg 6%
17:00 +28°C° 0 mm 2 m/s 738 mmHg 6%
18:00 +26°C° 0 mm 2 m/s 738 mmHg 7%
19:00 +24°C° 0 mm 1 m/s 738 mmHg 8%
20:00 +22°C° 0 mm 1 m/s 739 mmHg 9%
21:00 +22°C° 0 mm 1 m/s 739 mmHg 10%
22:00 +21°C° 0 mm 1 m/s 739 mmHg 11%
23:00 +21°C° 0 mm 1 m/s 739 mmHg 11%

2 Novembro, Segunda-feira

Tempo Temperatura Precipitação Vento Pressão Humidade
00:00 +20°C° 0 mm 1 m/s 739 mmHg 12%
01:00 +20°C° 0 mm 1 m/s 739 mmHg 12%
02:00 +19°C° 0 mm 1 m/s 739 mmHg 13%
03:00 +19°C° 0 mm 1 m/s 739 mmHg 13%
04:00 +18°C° 0 mm 1 m/s 738 mmHg 14%
05:00 +18°C° 0 mm 1 m/s 738 mmHg 14%
06:00 +19°C° 0 mm 1 m/s 739 mmHg 14%
07:00 +19°C° 0 mm 0 m/s 740 mmHg 13%
08:00 +21°C° 0 mm 0 m/s 740 mmHg 12%
09:00 +26°C° 0 mm 1 m/s 740 mmHg 10%
10:00 +29°C° 0 mm 1 m/s 740 mmHg 9%
11:00 +32°C° 0 mm 1 m/s 740 mmHg 7%
12:00 +34°C° 0 mm 2 m/s 740 mmHg 7%
13:00 +34°C° 0 mm 2 m/s 739 mmHg 7%
14:00 +35°C° 0 mm 3 m/s 739 mmHg 7%
15:00 +32°C° 0 mm 2 m/s 738 mmHg 8%
16:00 +29°C° 0 mm 1 m/s 738 mmHg 9%
17:00 +27°C° 0 mm 1 m/s 738 mmHg 10%
18:00 +26°C° 0 mm 1 m/s 738 mmHg 11%
19:00 +24°C° 0 mm 1 m/s 739 mmHg 12%
20:00 +20°C° 0 mm 0 m/s 739 mmHg 13%
21:00 +22°C° 0 mm 1 m/s 739 mmHg 13%
22:00 +21°C° 0 mm 1 m/s 739 mmHg 14%
23:00 +21°C° 0 mm 1 m/s 739 mmHg 14%

3 Novembro, Terça-feira

Tempo Temperatura Precipitação Vento Pressão Humidade
00:00 +20°C° 0 mm 1 m/s 739 mmHg 15%
01:00 +19°C° 0 mm 1 m/s 739 mmHg 16%
02:00 +16°C° 0 mm 0 m/s 739 mmHg 16%
03:00 +16°C° 0 mm 0 m/s 739 mmHg 17%
04:00 +18°C° 0 mm 1 m/s 739 mmHg 17%
05:00 +16°C° 0 mm 1 m/s 739 mmHg 18%
06:00 +19°C° 0 mm 1 m/s 739 mmHg 16%
07:00 +21°C° 0 mm 1 m/s 740 mmHg 15%
08:00 +23°C° 0 mm 1 m/s 740 mmHg 14%
09:00 +26°C° 0 mm 1 m/s 740 mmHg 12%
10:00 +29°C° 0 mm 1 m/s 740 mmHg 10%
11:00 +32°C° 0 mm 1 m/s 740 mmHg 8%
12:00 +33°C° 0 mm 1 m/s 740 mmHg 8%
13:00 +34°C° 0 mm 1 m/s 739 mmHg 8%
14:00 +33°C° 0 mm 0 m/s 739 mmHg 8%
15:00 +30°C° 0 mm 0 m/s 738 mmHg 9%
16:00 +28°C° 0 mm 0 m/s 738 mmHg 10%
17:00 +25°C° 0 mm 0 m/s 738 mmHg 12%
18:00 +24°C° 0 mm 0 m/s 738 mmHg 12%
19:00 +25°C° 0 mm 1 m/s 738 mmHg 13%
20:00 +24°C° 0 mm 1 m/s 738 mmHg 13%
21:00 +21°C° 0 mm 0 m/s 738 mmHg 14%
22:00 +20°C° 0 mm 0 m/s 738 mmHg 15%
23:00 +19°C° 0 mm 0 m/s 738 mmHg 16%
Mostrar mais